Talkeetna, AK

9:22 PM AKDT on May 25, 2017 (GMT -0800)
Talkeetna

Weather History for PATK - November, 2013

Change the Weather History Date:

Saturday, November 2, 2013

  Actual Average Record
Temperature  
Mean Temperature 34 °F -  
Max Temperature 36 °F 31 °F 47 °F (1986)
Min Temperature 32 °F 15 °F -19 °F (1971)
Degree Days  
Heating Degree Days 31    
Moisture  
Dew Point 33 °F    
Average Humidity 94    
Maximum Humidity 100    
Minimum Humidity 87    
Precipitation  
Precipitation 0.12 in - - ()
Sea Level Pressure  
Sea Level Pressure 29.93 in    
Wind  
Wind Speed 0 mph (North)    
Max Wind Speed 5 mph    
Max Gust Speed -    
Visibility 7 miles    
Events Rain , Snow    
Averages and records for this station are not official NWS values.
T = Trace of Precipitation, MM = Missing Value Source: NWS Daily Summary

Daily Weather History Graph

Daily Weather History Graph

Search for Another Location

Airport or City:

Trip Planner

Search our weather history database for the weather conditions in past years. The results will help you decide how hot, cold, wet, or windy it might be!

Date:

Astronomy

Nov. 02, 2013 Rise Set
Actual Time 9:37 AM AKDT 5:48 PM AKDT
Civil Twilight 8:47 AM AKDT 6:38 PM AKDT
Nautical Twilight 7:54 AM AKDT 7:32 PM AKDT
Astronomical Twilight 7:02 AM AKDT 8:24 PM AKDT
Moon 8:36 AM AKDT (11/2) 5:30 PM AKDT (11/2)
Length of Visible Light 9h 50m
Length of Day
8h 11m
Waning Crescent, 1% of the Moon is Illuminated
Nov 2
Waning Crescent
Nov 3
New
Nov 9
First Quarter
Nov 17
Full
Nov 25
Last Quarter

Hourly Weather History & Observations

Time (AKDT) Temp. Windchill Dew Point Humidity Pressure Visibility Wind Dir Wind Speed Gust Speed Precip Events Conditions
12:03 AM 33.8 °F - 32.0 °F 93% 29.99 in 6.0 mi Calm Calm - N/A   Overcast
12:40 AM 33.8 °F - 32.0 °F 93% 29.99 in 4.0 mi Calm Calm - 0.01 in Snow Light Snow
12:53 AM 33.1 °F - 30.9 °F 92% 30.01 in 3.0 mi Calm Calm - 0.01 in Snow Light Snow
1:30 AM 33.8 °F - 32.0 °F 93% 29.99 in 5.0 mi Calm Calm - 0.00 in   Overcast
1:53 AM 33.1 °F - 32.0 °F 96% 30.01 in 5.0 mi Calm Calm - 0.00 in   Overcast
2:05 AM 33.8 °F - 32.0 °F 93% 29.99 in 5.0 mi Calm Calm - N/A   Overcast
2:53 AM 33.1 °F - 32.0 °F 96% 30.01 in 5.0 mi Calm Calm - 0.00 in Snow Light Snow
3:39 AM 33.8 °F - 32.0 °F 93% 29.99 in 2.5 mi Calm Calm - 0.01 in Snow Light Snow
3:49 AM 33.8 °F - 32.0 °F 93% 29.99 in 3.0 mi Calm Calm - 0.01 in Snow Light Snow
3:53 AM 33.1 °F - 32.0 °F 96% 30.01 in 2.0 mi Calm Calm - 0.01 in Snow Light Snow
4:00 AM 33.8 °F - 32.0 °F 93% 29.98 in 1.2 mi Calm Calm - 0.01 in Snow Light Snow
4:08 AM 32.0 °F - 30.2 °F 93% 29.98 in 1.5 mi Calm Calm - 0.01 in Snow Light Snow
4:26 AM 32.0 °F - 30.2 °F 93% 29.98 in 2.0 mi Calm Calm - 0.02 in Snow Light Snow
4:53 AM 33.1 °F - 30.9 °F 92% 29.99 in 3.0 mi Calm Calm - 0.03 in Snow Light Snow
5:00 AM 33.8 °F - 30.2 °F 87% 29.97 in 4.0 mi Calm Calm - 0.00 in Snow Light Snow
5:14 AM 33.8 °F - 32.0 °F 93% 29.97 in 7.0 mi Calm Calm - 0.00 in   Overcast
5:24 AM 32.0 °F - 32.0 °F 100% 29.97 in 8.0 mi Calm Calm - 0.00 in   Overcast
5:53 AM 33.1 °F - 32.0 °F 96% 29.98 in 10.0 mi Calm Calm - 0.00 in   Overcast
6:53 AM 33.1 °F - 32.0 °F 96% 29.97 in 6.0 mi Calm Calm - 0.00 in Rain Light Rain
7:28 AM 33.8 °F - 32.0 °F 93% 29.94 in 5.0 mi Calm Calm - 0.00 in Rain Light Rain
7:39 AM 33.8 °F - 32.0 °F 93% 29.94 in 2.5 mi Calm Calm - 0.02 in Snow Light Snow
7:53 AM 33.1 °F - 32.0 °F 96% 29.96 in 5.0 mi Calm Calm - 0.05 in Rain Light Rain
8:53 AM 33.1 °F - 32.0 °F 96% 29.94 in 9.0 mi Calm Calm - 0.01 in Rain Light Rain
9:11 AM 33.8 °F - 32.0 °F 93% 29.91 in 10.0 mi Calm Calm - 0.01 in Rain Light Rain
9:53 AM 33.1 °F - 32.0 °F 96% 29.94 in 6.0 mi Calm Calm - 0.01 in Rain Light Rain
10:49 AM 33.8 °F - 32.0 °F 93% 29.91 in 8.0 mi Calm Calm - 0.02 in Rain Light Rain
10:53 AM 34.0 °F - 32.0 °F 92% 29.93 in 7.0 mi Calm Calm - 0.02 in Rain Light Rain
11:15 AM 33.8 °F - 33.8 °F 100% 29.91 in 6.0 mi Calm Calm - 0.02 in Rain Light Rain
11:25 AM 33.8 °F - 33.8 °F 100% 29.91 in 10.0 mi Calm Calm - 0.02 in Rain Light Rain
11:53 AM 34.0 °F - 33.1 °F 96% 29.93 in 10.0 mi Calm Calm - 0.02 in   Overcast
12:53 PM 35.1 °F - 33.1 °F 92% 29.93 in 10.0 mi Calm Calm - 0.00 in   Mostly Cloudy
1:00 PM 35.6 °F - 33.8 °F 93% 29.91 in 10.0 mi Calm Calm - N/A   Overcast
1:08 PM 35.6 °F - 33.8 °F 93% 29.91 in 10.0 mi Calm Calm - N/A   Overcast
1:53 PM 35.1 °F - 33.1 °F 92% 29.92 in 10.0 mi Calm Calm - 0.00 in   Overcast
2:16 PM 35.6 °F - 33.8 °F 93% 29.89 in 10.0 mi Calm Calm - N/A   Overcast
2:29 PM 35.6 °F - 33.8 °F 93% 29.89 in 10.0 mi Calm Calm - 0.00 in Rain Light Rain
2:40 PM 35.6 °F - 33.8 °F 93% 29.89 in 7.0 mi Calm Calm - 0.01 in Rain Light Rain
2:53 PM 35.1 °F - 34.0 °F 96% 29.91 in 4.0 mi Calm Calm - 0.02 in Rain Light Rain
3:24 PM 35.6 °F - 33.8 °F 93% 29.88 in 10.0 mi Calm Calm - 0.02 in Rain Light Rain
3:53 PM 36.0 °F - 34.0 °F 93% 29.89 in 10.0 mi Calm Calm - 0.02 in   Overcast
4:00 PM 35.6 °F 32.8 °F 33.8 °F 93% 29.87 in 10.0 mi North 3.5 mph - N/A   Overcast
4:45 PM 35.6 °F - 33.8 °F 93% 29.86 in 10.0 mi Calm Calm - N/A   Overcast
4:53 PM 36.0 °F - 34.0 °F 93% 29.88 in 10.0 mi Calm Calm - N/A   Overcast
5:53 PM 36.0 °F - 34.0 °F 93% 29.87 in 10.0 mi Calm Calm - 0.00 in Rain Light Rain
6:53 PM 35.1 °F - 34.0 °F 96% 29.87 in 10.0 mi Calm Calm - 0.00 in   Overcast
7:53 PM 35.1 °F - 34.0 °F 96% 29.87 in 10.0 mi Calm Calm - 0.00 in Rain Light Rain
8:53 PM 36.0 °F 32.1 °F 34.0 °F 93% 29.87 in 10.0 mi NNE 4.6 mph - 0.01 in Rain Light Rain
9:53 PM 36.0 °F 33.3 °F 34.0 °F 93% 29.87 in 10.0 mi North 3.5 mph - 0.00 in   Overcast
10:53 PM 36.0 °F 33.3 °F 34.0 °F 93% 29.87 in 10.0 mi North 3.5 mph - N/A   Overcast
11:53 PM 36.0 °F 33.3 °F 34.0 °F 93% 29.87 in 10.0 mi North 3.5 mph - N/A   Overcast